[[{"header":{"parameterUnit":"m.s-1","parameterCategory":1,"la1":30.2991,"la2":30.254,"lo1":-89.0895,"lo2":-89.0444,"dy":0.0017,"dx":0.0017,"nx":28,"ny":28,"refTime":"2024-05-11T03:00:00:Z","depth":0,"parameterNumber":2,"parameterNumberName":"U-component_of_WINDS"},"data":[0,0,0,0,0,0,0,0,0,0,0,0,0,0,0,0,0,0,0,0,0,0,0,0,0,0,0,0,0,0,0,0,0,0,0,0,0,0,0,0,0,0,0,0,0,0,0,0,0,0,0,0,0,0,0,0,0,0,-6.3034,-6.3035,0,-6.308,-6.3081,-6.3081,-6.2988,-6.2985,-6.2982,-6.2979,-6.3026,-6.303,-6.3034,0,0,0,0,0,0,0,0,0,0,0,0,0,-6.2867,-6.287,-6.3034,-6.3035,-6.3035,-6.308,-6.3081,-6.3081,-6.2988,-6.2985,-6.2981,-6.2977,-6.3024,-6.3029,-6.3034,0,0,0,0,0,0,0,0,0,0,0,0,0,-6.2929,-6.2871,-6.3034,-6.2994,-6.2991,-6.308,-6.3081,-6.3082,-6.2989,-6.2984,-6.298,-6.2976,-6.3023,-6.3029,-6.3035,-6.3165,0,0,-6.3054,-6.3056,0,0,0,0,0,0,0,0,-6.2925,-6.2935,-6.3,-6.2997,-6.2994,-6.3024,-6.3039,-6.311,-6.299,-6.299,-6.2979,-6.2973,-6.3029,-6.3034,-6.3053,-6.3167,-6.3169,-6.3054,-6.3058,-6.3061,-6.3062,0,0,0,0,0,0,0,-6.2921,-6.2932,-6.3052,-6.3001,-6.2997,-6.2974,-6.2978,-6.3052,-6.3034,-6.299,-6.2983,-6.299,-6.3026,-6.3047,-6.3053,-6.317,-6.3054,-6.306,-6.3063,-6.3066,-6.3393,-6.3398,0,0,0,0,0,0,-6.2922,-6.2929,-6.3051,-6.3054,-6.2948,-6.2981,-6.2985,-6.3019,-6.3033,-6.3031,-6.2993,-6.2985,-6.3039,-6.3046,-6.3055,-6.3207,-6.3061,-6.3066,-6.307,-6.3388,-6.3394,-6.3399,0,0,0,0,0,0,-6.2919,-6.2934,-6.3049,-6.299,-6.3003,-6.2989,-6.3027,-6.3022,-6.3042,-6.3036,-6.3033,-6.3018,-6.3036,-6.3046,-6.3138,-6.3207,-6.3069,-6.3075,-6.3382,-6.339,-6.3397,-6.3513,0,0,0,0,0,0,-6.2914,-6.2933,-6.2982,-6.2992,-6.3006,-6.3132,-6.3031,-6.3026,-6.3053,-6.3043,-6.3058,-6.3056,-6.3033,-6.3129,-6.3144,-6.3213,-6.3079,-6.3376,-6.3385,-6.3394,-6.3502,-6.3523,-6.3541,0,0,0,0,0,-6.2908,-6.3012,-6.2985,-6.3,-6.3067,-6.3136,-6.3144,-6.3115,-6.3059,-6.3108,-6.3105,-6.3056,-6.3198,-6.314,-6.3155,-6.3227,-6.3371,-6.3383,-6.3394,-6.3494,-6.3519,-6.354,0,0,0,0,0,0,-6.301,-6.3013,-6.2982,-6.3092,-6.3115,-6.312,-6.318,-6.3143,-6.3181,-6.3169,-6.3132,-6.3136,-6.3235,-6.3241,-6.3176,-6.3354,-6.3275,-6.329,-6.3346,-6.337,-6.3389,-6.3384,-6.3085,0,0,0,0,0,-6.3046,-6.3101,-6.3101,-6.3198,-6.3211,-6.3195,-6.3223,-6.3199,-6.322,-6.3229,-6.3232,-6.3255,-6.3305,-6.3338,-6.3383,-6.3504,-6.3506,-6.3561,-6.3581,-6.3596,-6.3609,-6.3673,-6.3697,-6.3436,-6.3436,-6.3436,0,0,-6.3119,-6.3127,-6.3164,-6.3219,-6.3233,-6.3291,-6.3203,-6.3268,-6.3311,-6.3239,-6.3325,-6.333,-6.3353,-6.346,-6.3507,-6.3467,-6.3682,-6.3611,-6.3623,-6.3627,-6.3687,-6.3712,-6.3734,-6.3444,-6.3442,-6.3441,0,0,-6.3281,-6.3294,-6.3376,-6.3393,-6.3416,-6.3405,-6.3425,-6.3437,-6.3436,-6.3523,-6.3471,-6.3522,-6.3608,-6.3627,-6.3648,-6.3821,-6.3777,-6.3837,-6.3936,-6.3999,-6.4019,-6.4037,-6.4097,-6.412,-6.385,-6.385,-6.3851,0,-6.3369,-6.3454,-6.3423,-6.3492,-6.3518,-6.3457,-6.354,-6.3558,-6.3595,-6.3614,-6.357,-6.3677,-6.3689,-6.3799,-6.3842,-6.3861,-6.3882,-6.3833,-6.4019,-6.4036,-6.4053,-6.411,-6.4133,-6.3857,-6.3856,-6.3856,-6.3855,0,-6.3561,-6.3621,-6.3685,-6.3723,-6.3756,-6.3832,-6.3812,-6.385,-6.3824,-6.3818,-6.3907,-6.3919,-6.3966,-6.3991,-6.3966,-6.4099,-6.4073,-6.4025,-6.3944,-6.4085,-6.4138,-6.416,-6.3867,-6.3865,-6.3863,-6.3861,0,0,-6.3785,-6.3806,-6.383,-6.3846,-6.3869,-6.3915,-6.399,-6.4035,-6.4068,-6.4097,-6.4157,-6.4233,-6.4189,-6.4213,-6.419,-6.4246,-6.4381,-6.419,-6.419,-6.4224,-6.4526,-6.4561,-6.4587,-6.4354,-6.4358,-6.4361,-6.4524,0,-6.3945,-6.4071,-6.4046,-6.417,-6.4225,-6.417,-6.4234,-6.4256,-6.4253,-6.43,-6.4296,-6.435,-6.4288,-6.4302,-6.4355,-6.4353,-6.4441,-6.4342,-6.4409,-6.4411,-6.4401,-6.4614,-6.4651,-6.4803,-6.4545,-6.4548,-6.4551,0,-6.4147,-6.4183,-6.4313,-6.4327,-6.435,-6.4408,-6.4448,-6.4495,-6.4518,-6.4512,-6.454,-6.4508,-6.4582,-6.4503,-6.4604,-6.4538,-6.4564,-6.4568,-6.4573,-6.4576,-6.4487,-6.4621,-6.4852,-6.4874,-6.4583,-6.4581,-6.4578,0,-6.4295,-6.4377,-6.4465,-6.4481,-6.4501,-6.4543,-6.4554,-6.4573,-6.4602,-6.4639,-6.4657,-6.4703,-6.4727,-6.4762,-6.4743,-6.4688,-6.4848,-6.4767,-6.4844,-6.4844,-6.4877,-6.4875,-6.5113,-6.4899,-6.4899,-6.4898,-6.4898,0,-6.4474,-6.4555,-6.4532,-6.4586,-6.4675,-6.4647,-6.4736,-6.474,-6.4758,-6.4812,-6.4768,-6.4819,-6.4792,-6.4842,-6.4828,-6.4913,-6.4925,-6.4922,-6.4916,-6.4924,-6.4924,-6.4939,-6.4926,-6.4905,-6.4903,-6.4902,-6.4901,0,-6.4653,-6.4641,-6.4733,-6.4745,-6.475,-6.4815,-6.4826,-6.4876,-6.4871,-6.494,-6.4955,-6.4947,-6.5003,-6.4988,-6.505,-6.504,-6.5148,-6.513,-6.514,-6.5134,-6.5211,-6.5203,-6.5464,-6.5497,-6.5265,-6.5267,-6.5269,0,-6.4767,-6.4828,-6.4847,-6.488,-6.4893,-6.4947,-6.4978,-6.4954,-6.4987,-6.502,-6.5067,-6.5119,-6.516,-6.5253,-6.5253,-6.53,-6.5282,-6.537,-6.5288,-6.5294,-6.5281,-6.5276,-6.5282,-6.5385,-6.5388,-6.539,-6.5392,0,-6.4969,-6.4961,-6.5006,-6.505,-6.5088,-6.5122,-6.5151,-6.5181,-6.5159,-6.5199,-6.5256,-6.5288,-6.5352,-6.5404,-6.5448,-6.5459,-6.5422,-6.5419,-6.5438,-6.5445,-6.5447,-6.5445,-6.5181,-6.5412,-6.541,-6.5408,-6.5407,-6.5407,-6.5117,-6.5169,-6.519,-6.5243,-6.5263,-6.5292,-6.534,-6.5342,-6.5389,-6.5438,-6.5422,-6.5488,-6.5511,-6.5566,-6.5583,-6.5634,-6.56,-6.563,-6.5636,-6.5643,-6.5652,-6.5442,-6.5642,-6.5642,-6.5641,-6.5641,-6.564,0,-6.5315,-6.5327,-6.5376,-6.5419,-6.5461,-6.5424,-6.5455,-6.5492,-6.5551,-6.5576,-6.5617,-6.5684,-6.5735,-6.5741,-6.5789,-6.5829,-6.5814,-6.5843,-6.5838,-6.5841,-6.568,-6.5657,-6.5855,-6.5855,-6.5854,-6.5854,-6.5854,-6.5854,-6.5423,-6.5508,-6.5503,-6.5598,-6.5609,-6.5673,-6.5694,-6.5721,-6.5741,-6.5817,-6.586,-6.5863,-6.5881,-6.5931,-6.5977,-6.5977,-6.5996,-6.6031,-6.6025,-6.5874,-6.5852,-6.5832,-6.581,-6.6036,-6.6036,-6.6181,-6.6182,-6.6183]},{"header":{"parameterUnit":"m.s-1","parameterCategory":1,"la1":30.2991,"la2":30.254,"lo1":-89.0895,"lo2":-89.0444,"dy":0.0017,"dx":0.0017,"nx":28,"ny":28,"refTime":"2024-05-11T03:00:00:Z","depth":0,"parameterNumber":3,"parameterNumberName":"V-component_of_WINDS"},"data":[0,0,0,0,0,0,0,0,0,0,0,0,0,0,0,0,0,0,0,0,0,0,0,0,0,0,0,0,0,0,0,0,0,0,0,0,0,0,0,0,0,0,0,0,0,0,0,0,0,0,0,0,0,0,0,0,0,0,1.8105,1.8104,0,1.8095,1.8094,1.8094,1.8081,1.808,1.808,1.808,1.8069,1.8069,1.8068,0,0,0,0,0,0,0,0,0,0,0,0,0,1.8112,1.8112,1.8105,1.8104,1.8104,1.8095,1.8094,1.8094,1.8081,1.808,1.808,1.808,1.8069,1.8069,1.8068,0,0,0,0,0,0,0,0,0,0,0,0,0,1.8106,1.8112,1.8105,1.8096,1.8096,1.8095,1.8094,1.8094,1.8081,1.808,1.808,1.808,1.8069,1.8069,1.8068,1.8074,0,0,1.8068,1.8068,0,0,0,0,0,0,0,0,1.8106,1.8106,1.8098,1.8097,1.8096,1.8089,1.8093,1.8088,1.8081,1.8086,1.808,1.808,1.8075,1.8075,1.8074,1.8074,1.8073,1.8068,1.8068,1.8068,1.8068,0,0,0,0,0,0,0,1.8107,1.8106,1.8101,1.8098,1.8097,1.8093,1.8092,1.8092,1.8083,1.8086,1.8085,1.8084,1.8075,1.8074,1.8073,1.8073,1.8068,1.8068,1.8068,1.8068,1.8079,1.808,0,0,0,0,0,0,1.8109,1.8107,1.8101,1.81,1.8101,1.8093,1.8092,1.8091,1.8083,1.8081,1.8084,1.8083,1.8074,1.8073,1.8073,1.808,1.8068,1.8068,1.8068,1.8079,1.808,1.808,0,0,0,0,0,0,1.8109,1.8108,1.8101,1.8103,1.8102,1.8094,1.8093,1.8091,1.809,1.8082,1.808,1.8085,1.8074,1.8073,1.8075,1.8079,1.8068,1.8068,1.8079,1.8079,1.808,1.8094,0,0,0,0,0,0,1.8109,1.8108,1.811,1.8103,1.8102,1.8103,1.8093,1.8091,1.809,1.8089,1.8082,1.808,1.8074,1.8075,1.8074,1.8079,1.8067,1.8078,1.8079,1.808,1.8093,1.8095,1.8097,0,0,0,0,0,1.8109,1.8114,1.811,1.811,1.8104,1.8103,1.8103,1.8095,1.809,1.8092,1.8087,1.808,1.8079,1.8075,1.8074,1.8079,1.8078,1.8079,1.808,1.8092,1.8094,1.8097,0,0,0,0,0,0,1.8121,1.8113,1.8109,1.8111,1.8108,1.8101,1.8103,1.8098,1.8096,1.8094,1.8085,1.8084,1.8087,1.8083,1.8079,1.8085,1.8077,1.8078,1.8087,1.8089,1.8091,1.8092,1.8067,0,0,0,0,0,1.8124,1.8124,1.8117,1.812,1.8119,1.8111,1.8111,1.8106,1.8102,1.81,1.8095,1.8092,1.8091,1.809,1.8088,1.8093,1.8091,1.8096,1.8098,1.8099,1.81,1.8103,1.8105,1.8083,1.8083,1.8083,0,0,1.8129,1.8125,1.8126,1.8122,1.8119,1.812,1.811,1.8111,1.8111,1.81,1.8101,1.8098,1.8093,1.8097,1.8098,1.8094,1.8106,1.81,1.8102,1.8101,1.8104,1.8106,1.8108,1.8084,1.8083,1.8083,0,0,1.814,1.8137,1.814,1.8137,1.8133,1.8129,1.813,1.8124,1.8121,1.8123,1.8115,1.8115,1.8113,1.8111,1.8109,1.8122,1.8115,1.8122,1.8131,1.8134,1.8136,1.8137,1.8142,1.8144,1.8122,1.8122,1.8123,0,1.8148,1.8148,1.8142,1.8143,1.8142,1.8134,1.8137,1.8134,1.813,1.813,1.8125,1.8124,1.812,1.8123,1.8127,1.8126,1.8127,1.8122,1.8136,1.8138,1.8139,1.8143,1.8145,1.8123,1.8123,1.8123,1.8123,0,1.8158,1.8159,1.8161,1.8158,1.8158,1.816,1.8154,1.8154,1.815,1.8146,1.8148,1.8144,1.8142,1.8143,1.8138,1.8146,1.8143,1.8138,1.813,1.8142,1.8146,1.8148,1.8124,1.8124,1.8124,1.8124,0,0,1.8174,1.8169,1.817,1.8169,1.8165,1.8165,1.8168,1.8167,1.8167,1.8165,1.8167,1.8167,1.8162,1.8161,1.8156,1.8159,1.817,1.8153,1.8153,1.8156,1.8179,1.8183,1.8185,1.8166,1.8166,1.8167,1.8179,0,1.8184,1.8188,1.8183,1.8188,1.8189,1.8182,1.8184,1.8182,1.8179,1.8179,1.8176,1.8176,1.817,1.8169,1.8172,1.8168,1.8174,1.8167,1.8168,1.8168,1.8169,1.8187,1.8191,1.8203,1.8181,1.8181,1.8181,0,1.8195,1.8195,1.82,1.8197,1.8198,1.82,1.8199,1.82,1.8198,1.8195,1.8195,1.819,1.8192,1.8185,1.8189,1.8184,1.8185,1.8183,1.8184,1.8183,1.8175,1.8187,1.8207,1.8209,1.8184,1.8184,1.8183,0,1.8207,1.8208,1.8211,1.8211,1.8207,1.8209,1.8208,1.8206,1.8206,1.8205,1.8206,1.8205,1.8205,1.8205,1.8201,1.8196,1.8205,1.8198,1.8204,1.8204,1.8205,1.8205,1.8225,1.8206,1.8206,1.8206,1.8206,0,1.8218,1.8222,1.8217,1.8219,1.8223,1.8218,1.8222,1.822,1.8219,1.8221,1.8215,1.8216,1.821,1.8212,1.8208,1.8212,1.8212,1.821,1.8209,1.8211,1.8211,1.821,1.8209,1.8206,1.8206,1.8206,1.8206,0,1.8231,1.8228,1.8232,1.8229,1.8228,1.8232,1.8229,1.8231,1.8229,1.8231,1.8232,1.8228,1.8229,1.8225,1.8225,1.8223,1.8229,1.8227,1.823,1.8229,1.8235,1.8235,1.8256,1.8258,1.8237,1.8238,1.8238,0,1.8239,1.8242,1.824,1.8241,1.824,1.8242,1.8243,1.8238,1.8239,1.8238,1.8241,1.8242,1.8243,1.8246,1.8243,1.8243,1.8241,1.8248,1.8241,1.8243,1.8241,1.8241,1.8242,1.825,1.825,1.825,1.825,0,1.8252,1.8251,1.8252,1.8253,1.8254,1.8255,1.8255,1.8256,1.8252,1.8253,1.8255,1.8256,1.8258,1.8259,1.826,1.8258,1.8254,1.8253,1.8254,1.8255,1.8257,1.8257,1.8234,1.8252,1.8252,1.8252,1.8252,1.8252,1.8263,1.8265,1.8265,1.8267,1.8267,1.8267,1.827,1.8268,1.827,1.8271,1.8268,1.8271,1.8271,1.8271,1.8271,1.8273,1.827,1.8272,1.8272,1.8273,1.8274,1.8258,1.8273,1.8273,1.8273,1.8273,1.8273,0,1.8276,1.8276,1.8278,1.8279,1.8281,1.8277,1.8278,1.8279,1.8282,1.8282,1.8284,1.8287,1.8289,1.8287,1.8288,1.8291,1.8289,1.8291,1.8291,1.8291,1.8277,1.8275,1.8293,1.8293,1.8293,1.8293,1.8293,1.8293,1.8283,1.8288,1.8287,1.8292,1.8291,1.8295,1.8295,1.8296,1.8296,1.83,1.8302,1.8301,1.8301,1.8303,1.8305,1.8304,1.8305,1.8308,1.8307,1.8294,1.8292,1.829,1.8289,1.8309,1.8309,1.8321,1.8321,1.8321]}]]